Overview Statistics Trail Chart Weather Telemetry Raw packets
 

This is the latest recevied weather packets stored in our database for station/object KV9E. If no packets are shown the sender has not sent any weather packets the latest 10 day(s).

<< 11 12 13 14 15 16 17 >>
Time Temp. Humidity Pressure Rain* Wind** Luminosity Snow
1788539684 31.11° C 64% 1018.3 hPa 0 mm - 295 W/m² -
1788539378 30.56° C 66% 1018.1 hPa 0 mm - 121 W/m² -
1788539074 30.56° C 65% 1018.1 hPa 0 mm - 127 W/m² -
1788538769 30.56° C 67% 1018.2 hPa 0 mm - 74 W/m² -
1788538464 30° C 68% 1018.4 hPa 0 mm - 80 W/m² -
1788538160 30° C 68% 1018.2 hPa 0 mm - 94 W/m² -
1788537855 30° C 69% 1018.3 hPa 0 mm - 74 W/m² -
1788537550 30° C 69% 1018.4 hPa 0 mm - 92 W/m² -
1788537244 29.44° C 70% 1018.3 hPa 0 mm - 83 W/m² -
1788536943 29.44° C 70% 1018.3 hPa 0 mm - 62 W/m² -
1788536638 28.89° C 71% 1018.4 hPa 0 mm - 60 W/m² -
1788536333 29.44° C 70% 1018.2 hPa 0 mm - 60 W/m² -
1788536028 28.89° C 74% 1018.6 hPa 0 mm - 59 W/m² -
1788535725 28.89° C 71% 1018.4 hPa 0 mm - 72 W/m² -
1788535424 28.89° C 72% 1018.3 hPa 0 mm - 58 W/m² -
1788535119 28.89° C 73% 1018.2 hPa 0 mm - 56 W/m² -
1788534818 28.89° C 72% 1018.4 hPa 0 mm - 55 W/m² -
1788534514 28.89° C 72% 1018.5 hPa 0 mm - 54 W/m² -
1788534209 28.33° C 72% 1018.3 hPa 0 mm - 53 W/m² -
1788533907 28.33° C 74% 1018.2 hPa 0 mm - 53 W/m² -
1788533604 28.33° C 73% 1018.2 hPa 0 mm - 52 W/m² -
1788533299 28.33° C 75% 1018 hPa 0 mm - 55 W/m² -
1788532995 28.33° C 75% 1018.2 hPa 0 mm - 50 W/m² -
1788532690 28.33° C 74% 1018.2 hPa 0 mm - 50 W/m² -
1788532386 27.78° C 75% 1018.2 hPa 0 mm - 49 W/m² -

* Rain latest hour (hover to see other rain measurements)
** Current wind speed in m/s (hover to see current wind gust speed)